Dati Storici

Data ora Umidita' aria (%) Temperatura aria (°C) Rad globale (W/m²) Gonioanemometro (°) Tacoanemometro (m/s) Pioggia (mm)
11-06-2020 20:50 85.4 % 17.567 -73.223 0.003 0 0
11-06-2020 20:40 82.5 % 17.686 -77.08 0.001 0 0
11-06-2020 20:30 80.8 % 17.925 -71.134 0.002 0 0
11-06-2020 20:20 79.6 % 18.276 -73.723 0.004 0 0
11-06-2020 20:10 76.9 % 18.578 -70.826 0.001 0 0
11-06-2020 20:00 74.5 % 19.128 -75.794 -0 0 0
11-06-2020 19:50 74.2 % 19.224 -74.821 -0 0 0
11-06-2020 19:40 71.8 % 19.75 -78.119 -0.004 0 0
11-06-2020 19:30 70.1 % 20.08 -70.451 -0.007 0 0
11-06-2020 19:20 69.2 % 20.442 -77.624 -0.013 0 0
11-06-2020 19:10 66.3 % 20.73 -70.006 -0.013 0 0
11-06-2020 19:00 66 % 21.057 -73.727 -0.017 0 0
11-06-2020 18:50 64.5 % 20.974 -65.722 -0.014 0 0
11-06-2020 18:40 65.2 % 20.954 -73.186 -0.006 0 0
11-06-2020 18:30 64.8 % 21.055 -72.138 -0.008 0 0
11-06-2020 18:20 65.1 % 21.014 -65.718 0.782 0 0
11-06-2020 18:10 67.5 % 21.324 -70.868 -0.006 0 0
11-06-2020 18:00 68.9 % 20.087 -75.651 -0.003 0 0
11-06-2020 17:50 67.5 % 20.135 -69.447 0.076 0 0
11-06-2020 17:40 66.6 % 20.5 -75.183 0.65 0 0

I dati sono presentati in modo automatico a scopo informativo. In seguito a verifica i dati possono subire modifiche o essere invalidati e non riportati negli archivi definitivi.